FW3047 Weather Reports


time (UTC)temp
F
wind
direction
speed
knots
gust
knots
rain 1hr
in
rain 24hr
in
rain mn
in
humidity
%
barometer
mb
20260504234531 79 246 1.7 10.4 0.00 0.00 0.00 35 1001.6
20260504233031 79 259 3.5 10.4 0.00 0.00 0.00 34 1001.6
20260504231529 80 240 6.1 13.0 0.00 0.00 0.00 33 1001.6
20260504230029 80 254 7.0 12.2 0.00 0.00 0.00 33 1001.6
20260504224535 81 247 8.7 12.2 0.00 0.00 0.00 33 1001.6
20260504223027 82 233 5.2 12.2 0.00 0.00 0.00 30 1001.6
20260504221526 83 269 4.3 11.3 0.00 0.00 0.00 26 1001.6
20260504220025 83 235 4.3 11.3 0.00 0.00 0.00 26 1001.7
20260504214526 83 260 7.8 13.9 0.00 0.00 0.00 25 1001.8
20260504213023 84 273 3.5 10.4 0.00 0.00 0.00 26 1002.0
20260504211521 83 276 5.2 13.0 0.00 0.00 0.00 29 1001.9
20260504210031 83 252 2.6 9.6 0.00 0.00 0.00 28 1002.0
20260504204527 82 247 7.0 13.0 0.00 0.00 0.00 29 1002.1
20260504203015 82 240 3.5 13.0 0.00 0.00 0.00 29 1002.3
20260504201509 81 275 5.2 15.6 0.00 0.00 0.00 31 1002.4
20260504200008 81 204 5.2 12.2 0.00 0.00 0.00 31 1002.5
20260504194507 80 259 7.0 15.6 0.00 0.00 0.00 30 1002.6
20260504193005 79 232 7.0 13.9 0.00 0.00 0.00 33 1002.6
20260504191502 79 245 7.0 16.5 0.00 0.00 0.00 32 1002.6
20260504190002 79 193 6.1 11.3 0.00 0.00 0.00 33 1002.6
20260504184602 79 266 4.3 11.3 0.00 0.00 0.00 33 1002.7
20260504183103 78 238 7.8 13.9 0.00 0.00 0.00 34 1002.9
20260504181552 77 232 6.1 14.8 0.00 0.00 0.00 35 1003.0
20260504180105 77 209 7.0 11.3 0.00 0.00 0.00 34 1003.0
20260504174548 75 261 8.7 12.2 0.00 0.00 0.00 35 1003.3
20260504173058 75 273 6.1 16.5 0.00 0.00 0.00 35 1003.3
20260504171545 75 267 3.5 12.2 0.00 0.00 0.00 36 1003.4
20260504081536 63 225 0.9 2.6 0.00 0.00 0.00 43 1006.1
20260504050010 68 149 6.1 9.6 0.00 0.00 0.00 39 1007.6
20260504044514 70 24 6.1 16.5 0.00 0.00 0.00 35 1009.4
20260504043013 69 350 3.5 9.6 0.00 0.00 0.00 37 1009.5
20260504041527 70 20 0.9 4.3 0.00 0.00 0.00 36 1008.3
20260504040010 70 100 4.3 12.2 0.00 0.00 0.00 35 1008.5
20260504034509 67 163 3.5 7.0 0.00 0.00 0.00 40 1008.8
20260504033006 67 95 2.6 5.2 0.00 0.00 0.00 42 1009.4
20260504031505 69 97 1.7 3.5 0.00 0.00 0.00 38 1009.2
20260504030004 70 97 0.9 5.2 0.00 0.00 0.00 36 1008.9
20260504024504 70 82 1.7 3.5 0.00 0.00 0.00 36 1008.9
20260504023004 69 55 0.0 2.6 0.00 0.00 0.00 37 1009.0
20260504021503 69 55 0.0 0.9 0.00 0.00 0.00 38 1009.0
20260504020006 70 55 0.9 2.6 0.00 0.00 0.00 37 1008.7
20260504014501 71 55 0.0 0.9 0.00 0.00 0.00 37 1008.7
20260504013133 72 55 0.0 1.7 0.00 0.00 0.00 37 1008.5
20260504011559 73 55 0.9 1.7 0.00 0.00 0.00 35 1008.6
20260504010100 74 55 0.0 1.7 0.00 0.00 0.00 32 1008.7
20260504004557 75 55 0.0 2.6 0.00 0.00 0.00 30 1008.7
20260504003056 76 55 0.9 2.6 0.00 0.00 0.00 28 1008.8
20260504001555 77 44 0.9 4.3 0.00 0.00 0.00 27 1008.9
20260504000055 79 39 1.7 5.2 0.00 0.00 0.00 26 1009.1